Time,TemperatureF,DewpointF,PressureIn,WindDirection,WindDirectionDegrees,WindSpeedMPH,WindSpeedGustMPH,Humidity,HourlyPrecipIn,Conditions,Clouds,dailyrainin,SolarRadiationWatts/m^2,SoftwareType,DateUTC
2013-05-02 00:01:00,47.4,40.2,30.39,SSE,161,0.0,-999.0,76,0.00,,,0.00,0,Wunderground v.1.15,2013-05-02 04:01:00,
2013-05-02 00:02:00,47.4,40.2,30.39,SSE,161,0.0,-999.0,76,0.00,,,0.00,0,Wunderground v.1.15,2013-05-02 04:02:00,
2013-05-02 00:03:00,47.4,40.2,30.40,SSE,161,0.0,-999.0,76,0.00,,,0.00,0,Wunderground v.1.15,2013-05-02 04:03:00,
2013-05-02 00:04:00,47.3,40.1,30.39,SSE,161,0.0,-999.0,76,0.00,,,0.00,0,Wunderground v.1.15,2013-05-02 04:04:00,
2013-05-02 00:08:00,47.1,39.9,30.39,SSE,161,0.0,-999.0,76,0.00,,,0.00,0,Wunderground v.1.15,2013-05-02 04:08:00,
2013-05-02 00:13:00,46.8,40.0,30.39,SSE,161,0.0,-999.0,77,0.00,,,0.00,0,Wunderground v.1.15,2013-05-02 04:13:00,
2013-05-02 00:18:00,46.5,40.0,30.39,SSE,161,2.0,-999.0,78,0.00,,,0.00,0,Wunderground v.1.15,2013-05-02 04:18:00,
2013-05-02 00:24:00,46.2,40.0,30.39,SSE,161,0.0,-999.0,79,0.00,,,0.00,0,Wunderground v.1.15,2013-05-02 04:24:00,
2013-05-02 00:30:00,46.0,39.9,30.39,SSE,161,0.0,-999.0,79,0.00,,,0.00,0,Wunderground v.1.15,2013-05-02 04:30:00,
2013-05-02 00:35:00,45.8,39.7,30.39,SSE,161,2.0,-999.0,79,0.00,,,0.00,0,Wunderground v.1.15,2013-05-02 04:35:00,
2013-05-02 00:40:00,45.6,39.8,30.39,SSE,161,0.0,-999.0,80,0.00,,,0.00,0,Wunderground v.1.15,2013-05-02 04:40:00,
2013-05-02 00:45:00,45.5,39.7,30.39,SSE,161,0.0,-999.0,80,0.00,,,0.00,0,Wunderground v.1.15,2013-05-02 04:45:00,
2013-05-02 00:50:00,45.3,39.5,30.39,SSE,161,0.0,-999.0,80,0.00,,,0.00,0,Wunderground v.1.15,2013-05-02 04:50:00,
2013-05-02 00:56:00,45.2,39.7,30.39,SSE,161,0.0,-999.0,81,0.00,,,0.00,0,Wunderground v.1.15,2013-05-02 04:56:00,
2013-05-02 01:01:00,45.0,39.5,30.39,SSE,161,0.0,-999.0,81,0.00,,,0.00,0,Wunderground v.1.15,2013-05-02 05:01:00,
2013-05-02 01:07:00,44.8,39.3,30.39,SSE,161,0.0,-999.0,81,0.00,,,0.00,0,Wunderground v.1.15,2013-05-02 05:07:00,
2013-05-02 01:12:00,44.6,39.1,30.39,SSE,161,0.0,-999.0,81,0.00,,,0.00,0,Wunderground v.1.15,2013-05-02 05:12:00,
2013-05-02 01:17:00,44.5,39.0,30.38,SSE,161,0.0,-999.0,81,0.00,,,0.00,0,Wunderground v.1.15,2013-05-02 05:17:00,
2013-05-02 01:22:00,44.4,38.9,30.38,SSE,161,0.0,-999.0,81,0.00,,,0.00,0,Wunderground v.1.15,2013-05-02 05:22:00,
2013-05-02 01:27:00,44.3,39.2,30.38,SSE,161,0.0,-999.0,82,0.00,,,0.00,0,Wunderground v.1.15,2013-05-02 05:27:00,
2013-05-02 01:33:00,44.2,39.1,30.38,SSE,161,0.0,-999.0,82,0.00,,,0.00,0,Wunderground v.1.15,2013-05-02 05:33:00,
2013-05-02 01:38:00,44.2,39.1,30.38,SSE,161,0.0,-999.0,82,0.00,,,0.00,0,Wunderground v.1.15,2013-05-02 05:38:00,
2013-05-02 01:43:00,44.1,39.3,30.38,SSE,161,0.0,-999.0,83,0.00,,,0.00,0,Wunderground v.1.15,2013-05-02 05:43:00,
2013-05-02 01:48:00,44.0,39.2,30.38,SSE,161,0.0,-999.0,83,0.00,,,0.00,0,Wunderground v.1.15,2013-05-02 05:48:00,
2013-05-02 01:54:00,43.9,39.1,30.37,SSE,161,0.0,-999.0,83,0.00,,,0.00,0,Wunderground v.1.15,2013-05-02 05:54:00,
2013-05-02 01:59:00,43.7,38.9,30.37,SSE,161,0.0,-999.0,83,0.00,,,0.00,0,Wunderground v.1.15,2013-05-02 05:59:00,
2013-05-02 02:04:00,43.5,38.7,30.37,SSE,161,0.0,-999.0,83,0.00,,,0.00,0,Wunderground v.1.15,2013-05-02 06:04:00,
2013-05-02 02:09:00,43.3,38.8,30.37,SSE,161,0.0,-999.0,84,0.00,,,0.00,0,Wunderground v.1.15,2013-05-02 06:09:00,
2013-05-02 02:14:00,43.2,38.7,30.37,SSE,161,0.0,-999.0,84,0.00,,,0.00,0,Wunderground v.1.15,2013-05-02 06:14:00,
2013-05-02 02:19:00,43.0,38.5,30.37,SSE,161,0.0,-999.0,84,0.00,,,0.00,0,Wunderground v.1.15,2013-05-02 06:19:00,
2013-05-02 02:24:00,42.7,38.2,30.37,SSE,161,0.0,-999.0,84,0.00,,,0.00,0,Wunderground v.1.15,2013-05-02 06:24:00,
2013-05-02 02:29:00,42.5,38.3,30.37,SSE,161,2.0,-999.0,85,0.00,,,0.00,0,Wunderground v.1.15,2013-05-02 06:29:00,
2013-05-02 02:34:00,42.4,38.5,30.37,SSE,161,0.0,-999.0,86,0.00,,,0.00,0,Wunderground v.1.15,2013-05-02 06:34:00,
2013-05-02 02:39:00,42.2,38.3,30.37,SSE,161,0.0,-999.0,86,0.00,,,0.00,0,Wunderground v.1.15,2013-05-02 06:39:00,
2013-05-02 02:44:00,42.3,38.7,30.37,SSE,161,0.0,-999.0,87,0.00,,,0.00,0,Wunderground v.1.15,2013-05-02 06:44:00,
2013-05-02 02:49:00,42.2,38.6,30.37,SSE,161,0.0,-999.0,87,0.00,,,0.00,0,Wunderground v.1.15,2013-05-02 06:49:00,
2013-05-02 02:54:00,42.2,38.6,30.37,SSE,161,0.0,-999.0,87,0.00,,,0.00,0,Wunderground v.1.15,2013-05-02 06:54:00,
2013-05-02 02:59:00,42.0,38.4,30.36,SSE,161,0.0,-999.0,87,0.00,,,0.00,0,Wunderground v.1.15,2013-05-02 06:59:00,
2013-05-02 03:05:00,41.8,38.2,30.36,SSE,161,0.0,-999.0,87,0.00,,,0.00,0,Wunderground v.1.15,2013-05-02 07:05:00,
2013-05-02 03:10:00,41.7,38.1,30.37,SSE,161,0.0,-999.0,87,0.00,,,0.00,0,Wunderground v.1.15,2013-05-02 07:10:00,
2013-05-02 03:15:00,41.6,38.0,30.37,SSE,161,0.0,-999.0,87,0.00,,,0.00,0,Wunderground v.1.15,2013-05-02 07:15:00,
2013-05-02 03:20:00,41.6,38.3,30.37,SSE,161,0.0,-999.0,88,0.00,,,0.00,0,Wunderground v.1.15,2013-05-02 07:20:00,
2013-05-02 03:25:00,41.5,38.2,30.36,SSE,161,0.0,-999.0,88,0.00,,,0.00,0,Wunderground v.1.15,2013-05-02 07:25:00,
2013-05-02 03:30:00,41.4,38.1,30.36,SSE,161,0.0,-999.0,88,0.00,,,0.00,0,Wunderground v.1.15,2013-05-02 07:30:00,
2013-05-02 03:35:00,41.3,38.0,30.37,SSE,161,0.0,-999.0,88,0.00,,,0.00,0,Wunderground v.1.15,2013-05-02 07:35:00,
2013-05-02 03:40:00,41.2,37.9,30.36,SSE,161,0.0,-999.0,88,0.00,,,0.00,0,Wunderground v.1.15,2013-05-02 07:40:00,
2013-05-02 03:45:00,41.0,37.7,30.36,SSE,161,0.0,-999.0,88,0.00,,,0.00,0,Wunderground v.1.15,2013-05-02 07:45:00,
2013-05-02 03:50:00,40.8,37.5,30.36,SSE,161,1.0,-999.0,88,0.00,,,0.00,0,Wunderground v.1.15,2013-05-02 07:50:00,
2013-05-02 03:55:00,40.7,37.7,30.36,SSE,161,0.0,-999.0,89,0.00,,,0.00,0,Wunderground v.1.15,2013-05-02 07:55:00,
2013-05-02 04:00:00,40.7,37.7,30.37,SSE,161,0.0,-999.0,89,0.00,,,0.00,0,Wunderground v.1.15,2013-05-02 08:00:00,
2013-05-02 04:05:00,40.7,38.0,30.37,SSE,161,0.0,-999.0,90,0.00,,,0.00,0,Wunderground v.1.15,2013-05-02 08:05:00,
2013-05-02 04:10:00,40.8,38.1,30.37,SSE,161,0.0,-999.0,90,0.00,,,0.00,0,Wunderground v.1.15,2013-05-02 08:10:00,
2013-05-02 04:15:00,40.8,38.1,30.37,SSE,161,0.0,-999.0,90,0.00,,,0.00,0,Wunderground v.1.15,2013-05-02 08:15:00,
2013-05-02 04:20:00,40.8,38.1,30.37,SSE,161,0.0,-999.0,90,0.00,,,0.00,0,Wunderground v.1.15,2013-05-02 08:20:00,
2013-05-02 04:25:00,40.7,38.0,30.37,SSE,161,0.0,-999.0,90,0.00,,,0.00,0,Wunderground v.1.15,2013-05-02 08:25:00,
2013-05-02 04:30:00,40.6,37.9,30.37,SSE,161,0.0,-999.0,90,0.00,,,0.00,0,Wunderground v.1.15,2013-05-02 08:30:00,
2013-05-02 04:35:00,40.5,37.8,30.37,SSE,161,0.0,-999.0,90,0.00,,,0.00,0,Wunderground v.1.15,2013-05-02 08:35:00,
2013-05-02 04:40:00,40.3,37.6,30.37,SSE,161,0.0,-999.0,90,0.00,,,0.00,0,Wunderground v.1.15,2013-05-02 08:40:00,
2013-05-02 04:45:00,40.3,37.6,30.37,SSE,161,0.0,-999.0,90,0.00,,,0.00,0,Wunderground v.1.15,2013-05-02 08:45:00,
2013-05-02 04:50:00,40.3,37.6,30.37,SSE,161,0.0,-999.0,90,0.00,,,0.00,0,Wunderground v.1.15,2013-05-02 08:50:00,
2013-05-02 04:55:00,40.2,37.8,30.37,SSE,161,0.0,-999.0,91,0.00,,,0.00,0,Wunderground v.1.15,2013-05-02 08:55:00,
2013-05-02 05:00:00,40.2,37.8,30.37,SSE,161,0.0,-999.0,91,0.00,,,0.00,0,Wunderground v.1.15,2013-05-02 09:00:00,
2013-05-02 05:05:00,40.2,37.8,30.37,SSE,161,0.0,-999.0,91,0.00,,,0.00,0,Wunderground v.1.15,2013-05-02 09:05:00,
2013-05-02 05:10:00,40.2,37.8,30.37,SSE,161,0.0,-999.0,91,0.00,,,0.00,0,Wunderground v.1.15,2013-05-02 09:10:00,
2013-05-02 05:15:00,40.1,37.7,30.37,SSE,161,0.0,-999.0,91,0.00,,,0.00,0,Wunderground v.1.15,2013-05-02 09:15:00,
2013-05-02 05:20:00,40.1,37.7,30.37,SSE,161,0.0,-999.0,91,0.00,,,0.00,0,Wunderground v.1.15,2013-05-02 09:20:00,
2013-05-02 05:25:00,39.9,37.5,30.37,SSE,161,0.0,-999.0,91,0.00,,,0.00,0,Wunderground v.1.15,2013-05-02 09:25:00,
2013-05-02 05:30:00,39.8,37.4,30.37,SSE,161,0.0,-999.0,91,0.00,,,0.00,0,Wunderground v.1.15,2013-05-02 09:30:00,
2013-05-02 05:35:00,39.7,37.3,30.37,SSE,161,0.0,-999.0,91,0.00,,,0.00,0,Wunderground v.1.15,2013-05-02 09:35:00,
2013-05-02 05:40:00,39.6,37.2,30.37,SSE,161,0.0,-999.0,91,0.00,,,0.00,0,Wunderground v.1.15,2013-05-02 09:40:00,
2013-05-02 05:45:00,39.4,37.0,30.37,SSE,161,0.0,-999.0,91,0.00,,,0.00,0,Wunderground v.1.15,2013-05-02 09:45:00,
2013-05-02 05:50:00,39.5,37.1,30.37,SSE,161,0.0,-999.0,91,0.00,,,0.00,0,Wunderground v.1.15,2013-05-02 09:50:00,
2013-05-02 05:55:00,39.7,37.6,30.37,SSE,161,2.0,-999.0,92,0.00,,,0.00,5,Wunderground v.1.15,2013-05-02 09:55:00,
2013-05-02 06:00:00,40.0,37.9,30.37,SSE,161,5.0,-999.0,92,0.00,,,0.00,9,Wunderground v.1.15,2013-05-02 10:00:00,
2013-05-02 06:05:00,40.6,38.5,30.38,SSE,161,4.0,-999.0,92,0.00,,,0.00,11,Wunderground v.1.15,2013-05-02 10:05:00,
2013-05-02 06:10:00,41.0,38.6,30.38,SSE,161,5.0,-999.0,91,0.00,,,0.00,12,Wunderground v.1.15,2013-05-02 10:10:00,
2013-05-02 06:15:00,41.5,39.1,30.37,SSE,161,2.0,-999.0,91,0.00,,,0.00,16,Wunderground v.1.15,2013-05-02 10:15:00,
2013-05-02 06:20:00,41.8,39.1,30.38,SSE,161,2.0,-999.0,90,0.00,,,0.00,18,Wunderground v.1.15,2013-05-02 10:20:00,
2013-05-02 06:25:00,42.1,39.1,30.38,SSE,161,1.0,-999.0,89,0.00,,,0.00,19,Wunderground v.1.15,2013-05-02 10:25:00,
2013-05-02 06:30:00,42.4,39.1,30.38,SSE,161,2.0,-999.0,88,0.00,,,0.00,21,Wunderground v.1.15,2013-05-02 10:30:00,
2013-05-02 06:36:00,42.7,39.1,30.37,SSE,162,4.0,-999.0,87,0.00,,,0.00,23,Wunderground v.1.15,2013-05-02 10:36:00,
2013-05-02 06:41:00,43.1,39.2,30.38,SSE,162,4.0,-999.0,86,0.00,,,0.00,25,Wunderground v.1.15,2013-05-02 10:41:00,
2013-05-02 06:46:00,43.4,39.2,30.38,WNW,283,5.0,-999.0,85,0.00,,,0.00,26,Wunderground v.1.15,2013-05-02 10:46:00,
2013-05-02 06:51:00,44.0,39.5,30.38,WNW,301,4.0,-999.0,84,0.00,,,0.00,28,Wunderground v.1.15,2013-05-02 10:51:00,
2013-05-02 06:56:00,44.6,39.4,30.38,WNW,303,5.0,-999.0,82,0.00,,,0.00,30,Wunderground v.1.15,2013-05-02 10:56:00,
2013-05-02 07:01:00,45.1,39.6,30.38,WNW,303,1.0,-999.0,81,0.00,,,0.00,32,Wunderground v.1.15,2013-05-02 11:01:00,
2013-05-02 07:06:00,45.5,39.4,30.38,NW,310,2.0,-999.0,79,0.00,,,0.00,40,Wunderground v.1.15,2013-05-02 11:06:00,
2013-05-02 07:11:00,46.0,39.5,30.38,NW,318,7.0,-999.0,78,0.00,,,0.00,156,Wunderground v.1.15,2013-05-02 11:11:00,
2013-05-02 07:16:00,46.7,39.9,30.38,NNW,334,5.0,-999.0,77,0.00,,,0.00,174,Wunderground v.1.15,2013-05-02 11:16:00,
2013-05-02 07:21:00,47.2,40.0,30.38,NNW,336,10.0,-999.0,76,0.00,,,0.00,192,Wunderground v.1.15,2013-05-02 11:21:00,
2013-05-02 07:26:00,47.7,40.2,30.38,NNW,344,1.0,-999.0,75,0.00,,,0.00,207,Wunderground v.1.15,2013-05-02 11:26:00,
2013-05-02 07:31:00,48.2,39.9,30.38,North,360,5.0,-999.0,73,0.00,,,0.00,223,Wunderground v.1.15,2013-05-02 11:31:00,
2013-05-02 07:36:00,48.6,40.0,30.39,North,5,5.0,-999.0,72,0.00,,,0.00,239,Wunderground v.1.15,2013-05-02 11:36:00,
2013-05-02 07:41:00,49.1,40.1,30.38,North,10,5.0,-999.0,71,0.00,,,0.00,255,Wunderground v.1.15,2013-05-02 11:41:00,
2013-05-02 07:46:00,49.5,40.1,30.38,North,9,9.0,-999.0,70,0.00,,,0.00,271,Wunderground v.1.15,2013-05-02 11:46:00,
2013-05-02 07:51:00,50.0,40.6,30.38,North,360,5.0,-999.0,70,0.00,,,0.00,283,Wunderground v.1.15,2013-05-02 11:51:00,
2013-05-02 07:56:00,50.5,40.7,30.39,North,5,3.0,-999.0,69,0.00,,,0.00,301,Wunderground v.1.15,2013-05-02 11:56:00,
2013-05-02 08:01:00,50.9,40.7,30.38,North,5,6.0,-999.0,68,0.00,,,0.00,316,Wunderground v.1.15,2013-05-02 12:01:00,
2013-05-02 08:06:00,51.5,40.9,30.39,North,5,5.0,-999.0,67,0.00,,,0.00,332,Wunderground v.1.15,2013-05-02 12:06:00,
2013-05-02 08:11:00,52.0,41.0,30.38,North,11,9.0,-999.0,66,0.00,,,0.00,348,Wunderground v.1.15,2013-05-02 12:11:00,
2013-05-02 08:16:00,52.6,40.8,30.38,NNE,12,3.0,-999.0,64,0.00,,,0.00,364,Wunderground v.1.15,2013-05-02 12:16:00,
2013-05-02 08:21:00,53.2,41.3,30.38,NNE,13,5.0,-999.0,64,0.00,,,0.00,378,Wunderground v.1.15,2013-05-02 12:21:00,
2013-05-02 08:26:00,53.9,41.2,30.38,NNE,15,4.0,-999.0,62,0.00,,,0.00,394,Wunderground v.1.15,2013-05-02 12:26:00,
2013-05-02 08:31:00,54.5,41.3,30.38,NNE,13,3.0,-999.0,61,0.00,,,0.00,410,Wunderground v.1.15,2013-05-02 12:31:00,
2013-05-02 08:36:00,55.1,41.5,30.39,North,5,5.0,-999.0,60,0.00,,,0.00,425,Wunderground v.1.15,2013-05-02 12:36:00,
2013-05-02 08:41:00,55.7,42.0,30.38,North,5,2.0,-999.0,60,0.00,,,0.00,441,Wunderground v.1.15,2013-05-02 12:41:00,
2013-05-02 08:46:00,56.4,42.2,30.39,North,5,0.0,-999.0,59,0.00,,,0.00,457,Wunderground v.1.15,2013-05-02 12:46:00,
2013-05-02 08:51:00,57.0,41.9,30.38,North,5,1.0,-999.0,57,0.00,,,0.00,475,Wunderground v.1.15,2013-05-02 12:51:00,
2013-05-02 08:56:00,57.6,42.5,30.38,North,9,1.0,-999.0,57,0.00,,,0.00,485,Wunderground v.1.15,2013-05-02 12:56:00,
2013-05-02 09:01:00,58.1,42.5,30.39,North,9,1.0,-999.0,56,0.00,,,0.00,499,Wunderground v.1.15,2013-05-02 13:01:00,
2013-05-02 09:06:00,58.9,42.3,30.38,North,5,0.0,-999.0,54,0.00,,,0.00,515,Wunderground v.1.15,2013-05-02 13:06:00,
2013-05-02 09:11:00,59.7,42.5,30.38,North,9,0.0,-999.0,53,0.00,,,0.00,529,Wunderground v.1.15,2013-05-02 13:11:00,
2013-05-02 09:16:00,60.5,42.8,30.38,North,9,2.0,-999.0,52,0.00,,,0.00,545,Wunderground v.1.15,2013-05-02 13:16:00,
2013-05-02 09:21:00,61.5,42.7,30.38,North,9,3.0,-999.0,50,0.00,,,0.00,559,Wunderground v.1.15,2013-05-02 13:21:00,
2013-05-02 09:26:00,62.6,43.2,30.38,North,9,5.0,-999.0,49,0.00,,,0.00,573,Wunderground v.1.15,2013-05-02 13:26:00,
2013-05-02 09:31:00,63.3,43.8,30.39,North,360,2.0,-999.0,49,0.00,,,0.00,585,Wunderground v.1.15,2013-05-02 13:31:00,
2013-05-02 09:36:00,63.8,45.3,30.39,North,360,0.0,-999.0,51,0.00,,,0.00,598,Wunderground v.1.15,2013-05-02 13:36:00,
2013-05-02 09:41:00,64.3,45.8,30.39,NE,55,5.0,-999.0,51,0.00,,,0.00,610,Wunderground v.1.15,2013-05-02 13:41:00,
2013-05-02 09:46:00,64.4,45.3,30.39,ENE,75,3.0,-999.0,50,0.00,,,0.00,622,Wunderground v.1.15,2013-05-02 13:46:00,
2013-05-02 09:51:00,64.7,46.1,30.39,ENE,75,2.0,-999.0,51,0.00,,,0.00,635,Wunderground v.1.15,2013-05-02 13:51:00,
2013-05-02 09:56:00,64.8,45.7,30.39,ENE,76,5.0,-999.0,50,0.00,,,0.00,645,Wunderground v.1.15,2013-05-02 13:56:00,
2013-05-02 10:01:00,64.8,45.7,30.39,East,80,2.0,-999.0,50,0.00,,,0.00,659,Wunderground v.1.15,2013-05-02 14:01:00,
2013-05-02 10:06:00,64.9,45.8,30.39,ESE,113,7.0,-999.0,50,0.00,,,0.00,671,Wunderground v.1.15,2013-05-02 14:06:00,
2013-05-02 10:11:00,65.2,46.1,30.39,ESE,113,4.0,-999.0,50,0.00,,,0.00,684,Wunderground v.1.15,2013-05-02 14:11:00,
2013-05-02 10:16:00,65.8,45.6,30.39,ESE,113,6.0,-999.0,48,0.00,,,0.00,698,Wunderground v.1.15,2013-05-02 14:16:00,
2013-05-02 10:21:00,66.2,45.4,30.39,SE,137,6.0,-999.0,47,0.00,,,0.00,708,Wunderground v.1.15,2013-05-02 14:21:00,
2013-05-02 10:26:00,66.7,45.8,30.39,SE,137,5.0,-999.0,47,0.00,,,0.00,719,Wunderground v.1.15,2013-05-02 14:26:00,
2013-05-02 10:31:00,67.2,45.7,30.39,SE,137,5.0,-999.0,46,0.00,,,0.00,729,Wunderground v.1.15,2013-05-02 14:31:00,
2013-05-02 10:36:00,67.9,45.2,30.39,SE,146,6.0,-999.0,44,0.00,,,0.00,738,Wunderground v.1.15,2013-05-02 14:36:00,
2013-05-02 10:41:00,68.4,45.0,30.38,SE,146,8.0,-999.0,43,0.00,,,0.00,751,Wunderground v.1.15,2013-05-02 14:41:00,
2013-05-02 10:46:00,68.8,45.4,30.38,SE,146,8.0,-999.0,43,0.00,,,0.00,759,Wunderground v.1.15,2013-05-02 14:46:00,
2013-05-02 10:51:00,69.3,45.8,30.38,SE,146,8.0,-999.0,43,0.00,,,0.00,772,Wunderground v.1.15,2013-05-02 14:51:00,
2013-05-02 10:56:00,69.7,44.3,30.38,SE,146,4.0,-999.0,40,0.00,,,0.00,784,Wunderground v.1.15,2013-05-02 14:56:00,
2013-05-02 11:01:00,70.2,44.7,30.38,SE,146,7.0,-999.0,40,0.00,,,0.00,791,Wunderground v.1.15,2013-05-02 15:01:00,
2013-05-02 11:06:00,70.9,45.4,30.38,SE,146,4.0,-999.0,40,0.00,,,0.00,798,Wunderground v.1.15,2013-05-02 15:06:00,
2013-05-02 11:11:00,71.5,43.1,30.37,SE,146,6.0,-999.0,36,0.00,,,0.00,805,Wunderground v.1.15,2013-05-02 15:11:00,
2013-05-02 11:16:00,71.9,38.8,30.37,SSE,147,8.0,-999.0,30,0.00,,,0.00,812,Wunderground v.1.15,2013-05-02 15:16:00,
2013-05-02 11:21:00,71.9,40.4,30.37,SSE,163,10.0,-999.0,32,0.00,,,0.00,819,Wunderground v.1.15,2013-05-02 15:21:00,
2013-05-02 11:26:00,72.1,32.2,30.37,SSE,166,8.0,-999.0,23,0.00,,,0.00,828,Wunderground v.1.15,2013-05-02 15:26:00,
2013-05-02 11:31:00,72.4,34.6,30.37,SSE,166,2.0,-999.0,25,0.00,,,0.00,838,Wunderground v.1.15,2013-05-02 15:31:00,
2013-05-02 11:36:00,72.7,32.7,30.36,SSE,167,8.0,-999.0,23,0.00,,,0.00,847,Wunderground v.1.15,2013-05-02 15:36:00,
2013-05-02 11:41:00,72.5,32.6,30.36,South,179,8.0,-999.0,23,0.00,,,0.00,858,Wunderground v.1.15,2013-05-02 15:41:00,
2013-05-02 11:46:00,72.8,30.6,30.36,South,179,8.0,-999.0,21,0.00,,,0.00,863,Wunderground v.1.15,2013-05-02 15:46:00,
2013-05-02 11:51:00,73.0,31.9,30.36,South,179,7.0,-999.0,22,0.00,,,0.00,868,Wunderground v.1.15,2013-05-02 15:51:00,
2013-05-02 11:56:00,73.4,35.4,30.36,South,180,4.0,-999.0,25,0.00,,,0.00,870,Wunderground v.1.15,2013-05-02 15:56:00,
2013-05-02 12:01:00,74.0,36.9,30.35,South,179,0.0,-999.0,26,0.00,,,0.00,872,Wunderground v.1.15,2013-05-02 16:01:00,
2013-05-02 12:06:00,74.5,35.3,30.35,South,179,2.0,-999.0,24,0.00,,,0.00,877,Wunderground v.1.15,2013-05-02 16:06:00,
2013-05-02 12:11:00,75.1,34.8,30.35,South,180,8.0,-999.0,23,0.00,,,0.00,881,Wunderground v.1.15,2013-05-02 16:11:00,
2013-05-02 12:16:00,75.5,35.1,30.35,South,180,2.0,-999.0,23,0.00,,,0.00,886,Wunderground v.1.15,2013-05-02 16:16:00,
2013-05-02 12:21:00,75.9,35.4,30.35,South,179,7.0,-999.0,23,0.00,,,0.00,879,Wunderground v.1.15,2013-05-02 16:21:00,
2013-05-02 12:26:00,76.1,35.6,30.34,South,180,6.0,-999.0,23,0.00,,,0.00,889,Wunderground v.1.15,2013-05-02 16:26:00,
2013-05-02 12:31:00,76.4,35.8,30.34,South,180,2.0,-999.0,23,0.00,,,0.00,889,Wunderground v.1.15,2013-05-02 16:31:00,
2013-05-02 12:36:00,76.7,36.1,30.34,South,180,5.0,-999.0,23,0.00,,,0.00,891,Wunderground v.1.15,2013-05-02 16:36:00,
2013-05-02 12:41:00,76.8,36.2,30.33,South,180,8.0,-999.0,23,0.00,,,0.00,893,Wunderground v.1.15,2013-05-02 16:41:00,
2013-05-02 12:46:00,76.6,36.0,30.33,South,180,5.0,-999.0,23,0.00,,,0.00,893,Wunderground v.1.15,2013-05-02 16:46:00,
2013-05-02 12:51:00,76.7,38.2,30.33,South,180,6.0,-999.0,25,0.00,,,0.00,895,Wunderground v.1.15,2013-05-02 16:51:00,
2013-05-02 12:56:00,77.1,38.6,30.33,South,180,7.0,-999.0,25,0.00,,,0.00,893,Wunderground v.1.15,2013-05-02 16:56:00,
2013-05-02 13:01:00,77.3,38.7,30.33,South,187,5.0,-999.0,25,0.00,,,0.00,895,Wunderground v.1.15,2013-05-02 17:01:00,
2013-05-02 13:06:00,77.1,39.6,30.33,SSW,192,9.0,-999.0,26,0.00,,,0.00,891,Wunderground v.1.15,2013-05-02 17:06:00,
2013-05-02 13:11:00,77.0,39.5,30.32,South,189,7.0,-999.0,26,0.00,,,0.00,891,Wunderground v.1.15,2013-05-02 17:11:00,
2013-05-02 13:16:00,76.9,40.4,30.32,South,183,6.0,-999.0,27,0.00,,,0.00,893,Wunderground v.1.15,2013-05-02 17:16:00,
2013-05-02 13:21:00,76.9,41.3,30.32,South,184,9.0,-999.0,28,0.00,,,0.00,889,Wunderground v.1.15,2013-05-02 17:21:00,
2013-05-02 13:26:00,76.9,40.4,30.32,South,183,8.0,-999.0,27,0.00,,,0.00,889,Wunderground v.1.15,2013-05-02 17:26:00,
2013-05-02 13:31:00,76.9,39.4,30.31,South,186,8.0,-999.0,26,0.00,,,0.00,884,Wunderground v.1.15,2013-05-02 17:31:00,
2013-05-02 13:36:00,77.0,39.5,30.31,SSW,196,8.0,-999.0,26,0.00,,,0.00,884,Wunderground v.1.15,2013-05-02 17:36:00,
2013-05-02 13:41:00,77.0,40.4,30.31,SSW,192,9.0,-999.0,27,0.00,,,0.00,881,Wunderground v.1.15,2013-05-02 17:41:00,
2013-05-02 13:46:00,77.4,39.8,30.31,South,183,8.0,-999.0,26,0.00,,,0.00,875,Wunderground v.1.15,2013-05-02 17:46:00,
2013-05-02 13:51:00,77.6,39.0,30.31,SSW,195,5.0,-999.0,25,0.00,,,0.00,875,Wunderground v.1.15,2013-05-02 17:51:00,
2013-05-02 13:56:00,77.8,40.2,30.30,SSW,197,5.0,-999.0,26,0.00,,,0.00,872,Wunderground v.1.15,2013-05-02 17:56:00,
2013-05-02 14:01:00,78.2,40.5,30.30,SSW,196,7.0,-999.0,26,0.00,,,0.00,868,Wunderground v.1.15,2013-05-02 18:01:00,
2013-05-02 14:06:00,78.4,38.6,30.30,SSW,202,5.0,-999.0,24,0.00,,,0.00,861,Wunderground v.1.15,2013-05-02 18:06:00,
2013-05-02 14:11:00,78.2,37.4,30.30,SW,217,7.0,-999.0,23,0.00,,,0.00,856,Wunderground v.1.15,2013-05-02 18:11:00,
2013-05-02 14:16:00,78.3,38.5,30.30,SSW,195,2.0,-999.0,24,0.00,,,0.00,851,Wunderground v.1.15,2013-05-02 18:16:00,
2013-05-02 14:21:00,78.5,38.7,30.30,South,180,1.0,-999.0,24,0.00,,,0.00,837,Wunderground v.1.15,2013-05-02 18:21:00,
2013-05-02 14:26:00,78.9,37.9,30.30,SSW,204,11.0,-999.0,23,0.00,,,0.00,838,Wunderground v.1.15,2013-05-02 18:26:00,
2013-05-02 14:31:00,78.9,37.9,30.30,SSW,207,2.0,-999.0,23,0.00,,,0.00,831,Wunderground v.1.15,2013-05-02 18:31:00,
2013-05-02 14:36:00,79.1,37.0,30.29,SSW,192,3.0,-999.0,22,0.00,,,0.00,824,Wunderground v.1.15,2013-05-02 18:36:00,
2013-05-02 14:41:00,79.3,37.1,30.29,SSW,192,4.0,-999.0,22,0.00,,,0.00,816,Wunderground v.1.15,2013-05-02 18:41:00,
2013-05-02 14:46:00,79.5,37.3,30.29,SSW,194,4.0,-999.0,22,0.00,,,0.00,807,Wunderground v.1.15,2013-05-02 18:46:00,
2013-05-02 14:51:00,79.6,37.4,30.29,SSW,204,5.0,-999.0,22,0.00,,,0.00,800,Wunderground v.1.15,2013-05-02 18:51:00,
2013-05-02 14:56:00,79.6,38.5,30.28,South,171,13.0,-999.0,23,0.00,,,0.00,789,Wunderground v.1.15,2013-05-02 18:56:00,
2013-05-02 15:01:00,79.5,39.5,30.28,SSW,193,7.0,-999.0,24,0.00,,,0.00,780,Wunderground v.1.15,2013-05-02 19:01:00,
2013-05-02 15:06:00,79.5,38.4,30.28,SSW,192,4.0,-999.0,23,0.00,,,0.00,772,Wunderground v.1.15,2013-05-02 19:06:00,
2013-05-02 15:11:00,79.5,38.4,30.28,South,185,5.0,-999.0,23,0.00,,,0.00,765,Wunderground v.1.15,2013-05-02 19:11:00,
2013-05-02 15:16:00,79.5,38.4,30.28,South,184,7.0,-999.0,23,0.00,,,0.00,756,Wunderground v.1.15,2013-05-02 19:16:00,
2013-05-02 15:21:00,79.4,39.4,30.28,South,180,8.0,-999.0,24,0.00,,,0.00,747,Wunderground v.1.15,2013-05-02 19:21:00,
2013-05-02 15:26:00,79.3,39.4,30.27,South,184,8.0,-999.0,24,0.00,,,0.00,735,Wunderground v.1.15,2013-05-02 19:26:00,
2013-05-02 15:31:00,79.4,39.4,30.27,South,186,6.0,-999.0,24,0.00,,,0.00,722,Wunderground v.1.15,2013-05-02 19:31:00,
2013-05-02 15:36:00,79.4,39.4,30.27,South,191,6.0,-999.0,24,0.00,,,0.00,714,Wunderground v.1.15,2013-05-02 19:36:00,
2013-05-02 15:41:00,79.4,39.4,30.27,SSW,194,7.0,-999.0,24,0.00,,,0.00,708,Wunderground v.1.15,2013-05-02 19:41:00,
2013-05-02 15:46:00,79.2,38.2,30.27,SSW,195,6.0,-999.0,23,0.00,,,0.00,689,Wunderground v.1.15,2013-05-02 19:46:00,
2013-05-02 15:51:00,79.4,39.4,30.27,South,186,5.0,-999.0,24,0.00,,,0.00,675,Wunderground v.1.15,2013-05-02 19:51:00,
2013-05-02 15:56:00,79.4,37.2,30.26,SW,215,7.0,-999.0,22,0.00,,,0.00,666,Wunderground v.1.15,2013-05-02 19:56:00,
2013-05-02 16:01:00,79.2,38.2,30.26,South,180,6.0,-999.0,23,0.00,,,0.00,647,Wunderground v.1.15,2013-05-02 20:01:00,
2013-05-02 16:06:00,79.2,37.1,30.26,SSW,202,7.0,-999.0,22,0.00,,,0.00,638,Wunderground v.1.15,2013-05-02 20:06:00,
2013-05-02 16:11:00,79.1,39.2,30.26,SSW,199,10.0,-999.0,24,0.00,,,0.00,631,Wunderground v.1.15,2013-05-02 20:11:00,
2013-05-02 16:16:00,79.2,38.2,30.26,SSW,192,4.0,-999.0,23,0.00,,,0.00,621,Wunderground v.1.15,2013-05-02 20:16:00,
2013-05-02 16:21:00,79.2,37.1,30.25,SSW,196,3.0,-999.0,22,0.00,,,0.00,605,Wunderground v.1.15,2013-05-02 20:21:00,
2013-05-02 16:26:00,79.3,37.1,30.26,SSW,196,7.0,-999.0,22,0.00,,,0.00,589,Wunderground v.1.15,2013-05-02 20:26:00,
2013-05-02 16:31:00,79.6,37.4,30.25,South,178,2.0,-999.0,22,0.00,,,0.00,577,Wunderground v.1.15,2013-05-02 20:31:00,
2013-05-02 16:36:00,79.8,36.4,30.25,South,181,5.0,-999.0,21,0.00,,,0.00,566,Wunderground v.1.15,2013-05-02 20:36:00,
2013-05-02 16:41:00,79.8,36.4,30.25,South,185,6.0,-999.0,21,0.00,,,0.00,550,Wunderground v.1.15,2013-05-02 20:41:00,
2013-05-02 16:46:00,79.8,36.4,30.25,South,185,7.0,-999.0,21,0.00,,,0.00,536,Wunderground v.1.15,2013-05-02 20:46:00,
2013-05-02 16:51:00,79.7,37.5,30.25,South,171,6.0,-999.0,22,0.00,,,0.00,522,Wunderground v.1.15,2013-05-02 20:51:00,
2013-05-02 16:56:00,79.6,37.4,30.25,South,175,8.0,-999.0,22,0.00,,,0.00,503,Wunderground v.1.15,2013-05-02 20:56:00,
2013-05-02 17:01:00,79.5,38.4,30.25,South,172,5.0,-999.0,23,0.00,,,0.00,487,Wunderground v.1.15,2013-05-02 21:01:00,
2013-05-02 17:06:00,79.4,38.4,30.25,South,172,2.0,-999.0,23,0.00,,,0.00,475,Wunderground v.1.15,2013-05-02 21:06:00,
2013-05-02 17:11:00,79.4,37.2,30.24,South,190,5.0,-999.0,22,0.00,,,0.00,462,Wunderground v.1.15,2013-05-02 21:11:00,
2013-05-02 17:16:00,79.3,37.1,30.24,South,189,5.0,-999.0,22,0.00,,,0.00,446,Wunderground v.1.15,2013-05-02 21:16:00,
2013-05-02 17:21:00,79.1,38.1,30.24,South,185,8.0,-999.0,23,0.00,,,0.00,429,Wunderground v.1.15,2013-05-02 21:21:00,
2013-05-02 17:26:00,78.9,36.8,30.24,South,188,0.0,-999.0,22,0.00,,,0.00,406,Wunderground v.1.15,2013-05-02 21:26:00,
2013-05-02 17:31:00,78.8,37.9,30.24,South,189,4.0,-999.0,23,0.00,,,0.00,336,Wunderground v.1.15,2013-05-02 21:31:00,
2013-05-02 17:36:00,78.8,37.9,30.23,South,189,0.0,-999.0,23,0.00,,,0.00,292,Wunderground v.1.15,2013-05-02 21:36:00,
2013-05-02 17:41:00,78.8,37.9,30.23,South,189,3.0,-999.0,23,0.00,,,0.00,232,Wunderground v.1.15,2013-05-02 21:41:00,
2013-05-02 17:46:00,78.7,38.9,30.24,South,189,3.0,-999.0,24,0.00,,,0.00,292,Wunderground v.1.15,2013-05-02 21:46:00,
2013-05-02 17:51:00,78.8,37.9,30.24,South,189,2.0,-999.0,23,0.00,,,0.00,250,Wunderground v.1.15,2013-05-02 21:51:00,
2013-05-02 17:57:00,78.7,39.9,30.23,South,189,0.0,-999.0,25,0.00,,,0.00,236,Wunderground v.1.15,2013-05-02 21:57:00,
2013-05-02 18:02:00,78.7,38.9,30.23,South,189,1.0,-999.0,24,0.00,,,0.00,299,Wunderground v.1.15,2013-05-02 22:02:00,
2013-05-02 18:06:00,78.6,37.7,30.23,South,189,1.0,-999.0,23,0.00,,,0.00,146,Wunderground v.1.15,2013-05-02 22:06:00,
2013-05-02 18:12:00,78.5,38.7,30.23,South,189,0.0,-999.0,24,0.00,,,0.00,207,Wunderground v.1.15,2013-05-02 22:12:00,
2013-05-02 18:17:00,78.4,38.6,30.23,South,189,3.0,-999.0,24,0.00,,,0.00,193,Wunderground v.1.15,2013-05-02 22:17:00,
2013-05-02 18:22:00,78.2,39.5,30.22,South,189,4.0,-999.0,25,0.00,,,0.00,141,Wunderground v.1.15,2013-05-02 22:22:00,
2013-05-02 18:27:00,77.9,38.2,30.22,South,189,1.0,-999.0,24,0.00,,,0.00,158,Wunderground v.1.15,2013-05-02 22:27:00,
2013-05-02 18:32:00,77.8,38.1,30.22,South,189,0.0,-999.0,24,0.00,,,0.00,91,Wunderground v.1.15,2013-05-02 22:32:00,
2013-05-02 18:37:00,77.8,39.1,30.22,South,189,0.0,-999.0,25,0.00,,,0.00,139,Wunderground v.1.15,2013-05-02 22:37:00,
2013-05-02 18:42:00,77.7,42.0,30.22,South,189,0.0,-999.0,28,0.00,,,0.00,148,Wunderground v.1.15,2013-05-02 22:42:00,
2013-05-02 18:47:00,77.6,40.0,30.22,South,189,1.0,-999.0,26,0.00,,,0.00,62,Wunderground v.1.15,2013-05-02 22:47:00,
2013-05-02 18:52:00,77.5,41.8,30.22,South,189,0.0,-999.0,28,0.00,,,0.00,60,Wunderground v.1.15,2013-05-02 22:52:00,
2013-05-02 18:57:00,77.1,44.1,30.22,South,189,0.0,-999.0,31,0.00,,,0.00,32,Wunderground v.1.15,2013-05-02 22:57:00,
2013-05-02 19:02:00,76.5,42.7,30.22,South,189,0.0,-999.0,30,0.00,,,0.00,30,Wunderground v.1.15,2013-05-02 23:02:00,
2013-05-02 19:07:00,75.3,43.4,30.22,South,189,0.0,-999.0,32,0.00,,,0.00,28,Wunderground v.1.15,2013-05-02 23:07:00,
2013-05-02 19:12:00,74.2,43.2,30.22,South,189,0.0,-999.0,33,0.00,,,0.00,26,Wunderground v.1.15,2013-05-02 23:12:00,
2013-05-02 19:17:00,73.4,44.8,30.22,South,189,0.0,-999.0,36,0.00,,,0.00,25,Wunderground v.1.15,2013-05-02 23:17:00,
2013-05-02 19:22:00,72.6,44.8,30.22,South,189,0.0,-999.0,37,0.00,,,0.00,23,Wunderground v.1.15,2013-05-02 23:22:00,
2013-05-02 19:27:00,71.6,45.3,30.23,South,189,0.0,-999.0,39,0.00,,,0.00,19,Wunderground v.1.15,2013-05-02 23:27:00,
2013-05-02 19:32:00,70.8,45.3,30.23,South,189,0.0,-999.0,40,0.00,,,0.00,18,Wunderground v.1.15,2013-05-02 23:32:00,
2013-05-02 19:37:00,70.3,46.1,30.23,South,189,0.0,-999.0,42,0.00,,,0.00,16,Wunderground v.1.15,2013-05-02 23:37:00,
2013-05-02 19:42:00,69.7,45.6,30.23,South,189,0.0,-999.0,42,0.00,,,0.00,12,Wunderground v.1.15,2013-05-02 23:42:00,
2013-05-02 19:47:00,69.2,45.1,30.23,South,189,0.0,-999.0,42,0.00,,,0.00,11,Wunderground v.1.15,2013-05-02 23:47:00,
2013-05-02 19:52:00,68.7,45.9,30.23,South,189,0.0,-999.0,44,0.00,,,0.00,7,Wunderground v.1.15,2013-05-02 23:52:00,
2013-05-02 19:57:00,68.1,45.9,30.23,South,189,0.0,-999.0,45,0.00,,,0.00,0,Wunderground v.1.15,2013-05-02 23:57:00,
2013-05-02 20:02:00,67.4,45.3,30.22,South,189,0.0,-999.0,45,0.00,,,0.00,0,Wunderground v.1.15,2013-05-03 00:02:00,
2013-05-02 20:07:00,66.8,45.3,30.23,South,189,0.0,-999.0,46,0.00,,,0.00,0,Wunderground v.1.15,2013-05-03 00:07:00,
2013-05-02 20:12:00,66.2,44.2,30.23,South,189,0.0,-999.0,45,0.00,,,0.00,0,Wunderground v.1.15,2013-05-03 00:12:00,
2013-05-02 20:17:00,65.7,43.8,30.23,South,189,0.0,-999.0,45,0.00,,,0.00,0,Wunderground v.1.15,2013-05-03 00:17:00,
2013-05-02 20:22:00,65.2,45.0,30.22,South,189,0.0,-999.0,48,0.00,,,0.00,0,Wunderground v.1.15,2013-05-03 00:22:00,
2013-05-02 20:27:00,64.5,44.4,30.23,South,189,0.0,-999.0,48,0.00,,,0.00,0,Wunderground v.1.15,2013-05-03 00:27:00,
2013-05-02 20:32:00,63.8,44.3,30.23,South,189,0.0,-999.0,49,0.00,,,0.00,0,Wunderground v.1.15,2013-05-03 00:32:00,
2013-05-02 20:37:00,63.1,45.2,30.23,South,189,0.0,-999.0,52,0.00,,,0.00,0,Wunderground v.1.15,2013-05-03 00:37:00,
2013-05-02 20:42:00,62.5,46.1,30.23,South,189,0.0,-999.0,55,0.00,,,0.00,0,Wunderground v.1.15,2013-05-03 00:42:00,
2013-05-02 20:47:00,62.0,46.1,30.23,South,189,0.0,-999.0,56,0.00,,,0.00,0,Wunderground v.1.15,2013-05-03 00:47:00,
2013-05-02 20:52:00,61.4,46.0,30.23,South,189,1.0,-999.0,57,0.00,,,0.00,0,Wunderground v.1.15,2013-05-03 00:52:00,
2013-05-02 20:57:00,60.8,46.4,30.23,South,189,2.0,-999.0,59,0.00,,,0.00,0,Wunderground v.1.15,2013-05-03 00:57:00,
2013-05-02 21:02:00,60.3,45.9,30.23,South,189,0.0,-999.0,59,0.00,,,0.00,0,Wunderground v.1.15,2013-05-03 01:02:00,
2013-05-02 21:07:00,59.9,45.1,30.23,South,189,0.0,-999.0,58,0.00,,,0.00,0,Wunderground v.1.15,2013-05-03 01:07:00,
2013-05-02 21:12:00,59.5,45.6,30.23,South,189,0.0,-999.0,60,0.00,,,0.00,0,Wunderground v.1.15,2013-05-03 01:12:00,
2013-05-02 21:17:00,59.3,46.3,30.23,South,189,0.0,-999.0,62,0.00,,,0.00,0,Wunderground v.1.15,2013-05-03 01:17:00,
2013-05-02 21:22:00,59.1,46.9,30.23,South,189,1.0,-999.0,64,0.00,,,0.00,0,Wunderground v.1.15,2013-05-03 01:22:00,
2013-05-02 21:27:00,58.7,46.5,30.23,South,189,0.0,-999.0,64,0.00,,,0.00,0,Wunderground v.1.15,2013-05-03 01:27:00,
2013-05-02 21:32:00,58.5,46.4,30.23,South,189,0.0,-999.0,64,0.00,,,0.00,0,Wunderground v.1.15,2013-05-03 01:32:00,
2013-05-02 21:37:00,58.3,46.6,30.23,South,189,0.0,-999.0,65,0.00,,,0.00,0,Wunderground v.1.15,2013-05-03 01:37:00,
2013-05-02 21:42:00,57.9,46.2,30.23,South,189,0.0,-999.0,65,0.00,,,0.00,0,Wunderground v.1.15,2013-05-03 01:42:00,
2013-05-02 21:47:00,57.6,45.9,30.23,South,189,0.0,-999.0,65,0.00,,,0.00,0,Wunderground v.1.15,2013-05-03 01:47:00,
2013-05-02 21:52:00,57.2,45.9,30.23,South,189,0.0,-999.0,66,0.00,,,0.00,0,Wunderground v.1.15,2013-05-03 01:52:00,
2013-05-02 21:57:00,56.9,46.1,30.23,South,189,0.0,-999.0,67,0.00,,,0.00,0,Wunderground v.1.15,2013-05-03 01:57:00,
2013-05-02 22:02:00,56.6,45.8,30.23,South,189,0.0,-999.0,67,0.00,,,0.00,0,Wunderground v.1.15,2013-05-03 02:02:00,
2013-05-02 22:07:00,56.4,46.0,30.23,South,189,0.0,-999.0,68,0.00,,,0.00,0,Wunderground v.1.15,2013-05-03 02:07:00,
2013-05-02 22:12:00,56.1,46.1,30.23,South,189,0.0,-999.0,69,0.00,,,0.00,0,Wunderground v.1.15,2013-05-03 02:12:00,
2013-05-02 22:17:00,55.9,45.9,30.23,South,189,0.0,-999.0,69,0.00,,,0.00,0,Wunderground v.1.15,2013-05-03 02:17:00,
2013-05-02 22:22:00,55.5,45.5,30.23,South,189,0.0,-999.0,69,0.00,,,0.00,0,Wunderground v.1.15,2013-05-03 02:22:00,
2013-05-02 22:27:00,55.3,45.7,30.23,South,189,0.0,-999.0,70,0.00,,,0.00,0,Wunderground v.1.15,2013-05-03 02:27:00,
2013-05-02 22:32:00,55.0,45.8,30.23,South,189,0.0,-999.0,71,0.00,,,0.00,0,Wunderground v.1.15,2013-05-03 02:32:00,
2013-05-02 22:37:00,54.7,45.8,30.23,South,189,2.0,-999.0,72,0.00,,,0.00,0,Wunderground v.1.15,2013-05-03 02:37:00,
2013-05-02 22:42:00,55.0,44.2,30.24,North,355,9.0,-999.0,67,0.00,,,0.00,0,Wunderground v.1.15,2013-05-03 02:42:00,
2013-05-02 22:47:00,56.1,45.7,30.24,NNW,331,11.0,-999.0,68,0.00,,,0.00,0,Wunderground v.1.15,2013-05-03 02:47:00,
2013-05-02 22:52:00,56.8,44.7,30.24,North,350,11.0,-999.0,64,0.00,,,0.00,0,Wunderground v.1.15,2013-05-03 02:52:00,
2013-05-02 22:57:00,57.8,44.9,30.25,NNW,348,9.0,-999.0,62,0.00,,,0.00,0,Wunderground v.1.15,2013-05-03 02:57:00,
2013-05-02 23:02:00,58.2,45.2,30.25,NNW,327,5.0,-999.0,62,0.00,,,0.00,0,Wunderground v.1.15,2013-05-03 03:02:00,
2013-05-02 23:07:00,58.3,44.9,30.26,NNW,331,11.0,-999.0,61,0.00,,,0.00,0,Wunderground v.1.15,2013-05-03 03:07:00,
2013-05-02 23:12:00,58.8,45.4,30.27,North,355,5.0,-999.0,61,0.00,,,0.00,0,Wunderground v.1.15,2013-05-03 03:12:00,
2013-05-02 23:17:00,58.9,45.5,30.27,North,5,1.0,-999.0,61,0.00,,,0.00,0,Wunderground v.1.15,2013-05-03 03:17:00,
2013-05-02 23:22:00,58.8,45.4,30.28,North,5,0.0,-999.0,61,0.00,,,0.00,0,Wunderground v.1.15,2013-05-03 03:22:00,
2013-05-02 23:27:00,58.7,45.3,30.28,North,5,0.0,-999.0,61,0.00,,,0.00,0,Wunderground v.1.15,2013-05-03 03:27:00,
2013-05-02 23:32:00,58.5,45.1,30.29,North,5,0.0,-999.0,61,0.00,,,0.00,0,Wunderground v.1.15,2013-05-03 03:32:00,
2013-05-02 23:37:00,58.2,44.8,30.29,North,5,0.0,-999.0,61,0.00,,,0.00,0,Wunderground v.1.15,2013-05-03 03:37:00,
2013-05-02 23:42:00,57.9,45.0,30.29,North,5,0.0,-999.0,62,0.00,,,0.00,0,Wunderground v.1.15,2013-05-03 03:42:00,
2013-05-02 23:47:00,57.5,44.6,30.29,North,5,2.0,-999.0,62,0.00,,,0.00,0,Wunderground v.1.15,2013-05-03 03:47:00,
2013-05-02 23:52:00,57.2,44.7,30.30,North,5,0.0,-999.0,63,0.00,,,0.00,0,Wunderground v.1.15,2013-05-03 03:52:00,
2013-05-02 23:57:00,57.1,45.0,30.31,North,5,1.0,-999.0,64,0.00,,,0.00,0,Wunderground v.1.15,2013-05-03 03:57:00,